Regional Weather Roundup
Issued by NWS

Home | Current Version | Previous Version | Graphics & Text | Print | Product List | Glossary On
Versions: 1 2 3 4 5 6 7 8 9 10 11 12 13 14 15 16 17 18 19 20 21 22 23 24 25 26 27 28 29 30 31 32 33 34 35 36 37 38 39 40 41 42 43 44 45 46 47 48 49 50
000
ASUS43 KFSD 282310
RWRSD

WEATHER ROUNDUP FOR SOUTH DAKOTA
NATIONAL WEATHER SERVICE SIOUX FALLS SD
600 PM CDT FRI AUG 28 2015

NOTE: "FAIR" INDICATES FEW OR NO CLOUDS BELOW 12,000 FEET WITH NO
SIGNIFICANT WEATHER AND/OR OBSTRUCTIONS TO VISIBILITY.


SDZ001>005-009-010-012>017-290000-
NORTHWEST AND NORTH CENTRAL SOUTH DAKOTA

CITY           SKY/WX    TMP DP  RH WIND       PRES   REMARKS
BUFFALO          N/A     85  49  28 W15       29.94S
FAITH            N/A     85  54  34 SW8       29.96S
MOBRIDGE       SUNNY     83  68  60 S10       29.90S
$$

SDZ012>016-024>037-041>051-057-063-072>074-290000-
SOUTHWEST AND SOUTH CENTRAL SOUTH DAKOTA

CITY           SKY/WX    TMP DP  RH WIND       PRES   REMARKS
RAPID CTY ARPT SUNNY     85  58  39 CALM      30.03R
PIERRE         SUNNY     82  66  58 E5        29.93S
CUSTER         SUNNY     78  48  34 S5        30.20R
ELLSWORTH AFB  SUNNY     86  54  33 NE6       30.02S
PHILIP         SUNNY     83  65  54 S7        29.96S
PINE RIDGE     SUNNY     86  50  28 NE6       30.05R
WINNER         FAIR      78  64  61 SE6       29.99S
$$

SDZ004>011-016>023-039-040-290000-
NORTHEAST SOUTH DAKOTA

CITY           SKY/WX    TMP DP  RH WIND       PRES   REMARKS
ABERDEEN       SUNNY     77  67  71 S9        29.93S
WATERTOWN      MOSUNNY   76  64  66 S9        29.97R
BROOKINGS      MOSUNNY   72  63  73 E7        29.99R
SISSETON         N/A     77  65  66 S13       29.92R
$$

SDZ017-020-022-023-036>040-048>070-290000-
SOUTHEAST SOUTH DAKOTA

CITY           SKY/WX    TMP DP  RH WIND       PRES   REMARKS
SIOUX FALLS    PTSUNNY   70  61  73 E12       29.96S
HURON          MOSUNNY   77  65  66 SE7       29.94S
CHAMBERLAIN    SUNNY     76  65  69 CALM      29.97S
MITCHELL       SUNNY     76  66  71 VRB6      29.96R
YANKTON        MOSUNNY   72  64  78 NE14      29.94R
$$

ABBREVIATIONS USED IN REMARKS
   TC - TEMPERATURE IN CELSIUS
  WCI - WIND CHILL INDEX
   HX - HEAT INDEX
  VSB - VISIBILITY



USA.gov is the U.S. government's official web portal to all federal, state and local government web resources and services.